Date,TemperatureHighF,TemperatureAvgF,TemperatureLowF,DewpointHighF,DewpointAvgF,DewpointLowF,HumidityHigh,HumidityAvg,HumidityLow,PressureMaxIn,PressureMinIn,WindSpeedMaxMPH,WindSpeedAvgMPH,GustSpeedMaxMPH,PrecipitationSumIn
2013-3-1,64,44,23,37,26,18,87,53,25,30.37,30.19,23,6,23,0.00
2013-3-2,69,47,26,39,31,22,85,58,33,30.50,30.23,8,3,8,0.00
2013-3-3,82,58,32,42,32,27,86,46,18,30.23,29.78,17,8,22,0.00
2013-3-4,88,65,45,44,34,29,65,35,13,29.84,29.66,17,8,21,0.00
2013-3-5,65,49,32,47,29,16,75,49,26,30.42,29.80,29,12,31,0.00
2013-3-6,72,45,22,29,22,14,77,46,19,30.47,30.14,14,5,16,0.00
2013-3-7,81,57,36,50,38,22,85,53,32,30.18,29.99,17,7,17,0.00
2013-3-8,73,63,50,72,62,47,100,97,84,30.06,29.88,19,10,21,0.00
2013-3-9,89,69,49,70,56,36,100,68,33,29.88,29.60,16,10,21,0.02
2013-3-10,59,50,36,51,35,22,100,60,29,30.15,29.80,26,14,26,0.02
2013-3-11,74,48,22,36,27,16,83,50,23,30.22,29.95,11,4,12,0.02
2013-3-12,79,56,37,39,34,27,67,46,20,30.26,30.01,19,8,21,0.00
2013-3-13,83,70,50,45,40,33,55,34,24,30.42,30.19,15,4,17,0.00
2013-3-14,87,64,44,53,44,36,81,52,24,30.32,30.12,12,6,15,0.00
2013-3-15,91,67,46,57,48,40,96,55,22,30.17,29.88,14,6,16,0.00
2013-3-16,96,73,53,56,47,39,88,46,15,29.90,29.60,15,8,16,0.00
2013-3-17,85,64,47,53,48,42,85,57,31,29.86,29.63,12,5,13,0.00
2013-3-18,75,60,44,48,44,36,80,57,38,29.97,29.70,17,7,20,0.00
2013-3-19,93,62,38,54,45,34,95,62,17,30.08,29.78,16,5,19,0.00
2013-3-20,75,60,46,50,40,37,73,51,28,30.31,29.98,15,8,16,0.00
2013-3-21,88,67,46,59,49,36,81,56,32,29.98,29.47,16,8,21,0.00
2013-3-22,69,58,46,67,54,44,100,86,53,29.82,29.59,19,8,19,0.00
2013-3-23,85,63,47,55,44,29,94,60,18,29.87,29.56,26,8,31,0.00
2013-3-24,56,45,32,49,29,22,86,57,32,30.29,29.87,26,13,29,0.00
2013-3-25,62,42,22,26,22,17,83,49,22,30.41,30.18,11,4,13,0.00
2013-3-26,74,48,24,33,25,18,82,47,19,30.48,30.17,13,5,14,0.00
2013-3-27,83,59,36,50,39,22,75,50,31,30.23,30.00,18,8,22,0.00
2013-3-28,87,64,43,85,57,43,100,82,39,30.13,29.98,16,7,19,0.00
2013-3-29,90,66,50,87,62,50,100,88,49,30.12,29.97,14,6,14,0.00
2013-3-30,94,72,52,86,61,-100,100,79,29,30.09,29.81,13,6,18,0.00
2013-3-31,82,70,61,63,58,51,92,67,40,29.99,29.85,19,7,22,0.00